VLG793 LEBL-LEPA

Flight info

Callsign VLG793
Flight time 0h 27m
Altitude 17000
Route LARPA N859 TOLSO
Aircraft A321/M-SDE3FGHIRWY/LB1

Departure

Time 2026-05-05 16:31
Airport Josep Tarradellas Barcelona-El Prat Airport (LEBL)

Arrival

Time 2026-05-05 16:59
Airport Palma de Mallorca Airport (LEPA)
Time Latitude Longitude Altitude Speed Heading
2026-05-05 15:48 41.29233 2.08213 21 ft 0 kts 182°
2026-05-05 16:20 41.29238 2.08213 20 ft 4 kts 180°
2026-05-05 16:20 41.29271 2.08180 19 ft 4 kts 77°
2026-05-05 16:21 41.29268 2.08167 18 ft 0 kts 64°
2026-05-05 16:24 41.29269 2.08168 18 ft 0 kts 64°
2026-05-05 16:25 41.29275 2.08179 18 ft 3 kts 50°
2026-05-05 16:25 41.29352 2.08276 18 ft 10 kts 65°
2026-05-05 16:25 41.29361 2.08372 19 ft 12 kts 126°
2026-05-05 16:26 41.29171 2.08498 17 ft 19 kts 156°
2026-05-05 16:26 41.28892 2.08665 18 ft 15 kts 156°
2026-05-05 16:27 41.28877 2.08769 18 ft 14 kts 67°
2026-05-05 16:27 41.28922 2.08900 20 ft 17 kts 65°
2026-05-05 16:27 41.28973 2.09054 18 ft 19 kts 64°
2026-05-05 16:27 41.29029 2.09219 18 ft 17 kts 66°
2026-05-05 16:28 41.29078 2.09379 18 ft 20 kts 68°
2026-05-05 16:28 41.29144 2.09555 18 ft 23 kts 64°
2026-05-05 16:28 41.29214 2.09755 19 ft 25 kts 66°
2026-05-05 16:28 41.29284 2.09939 18 ft 19 kts 56°
2026-05-05 16:29 41.29331 2.10062 18 ft 5 kts 65°
2026-05-05 16:29 41.29349 2.10116 20 ft 8 kts 66°
2026-05-05 16:29 41.29367 2.10195 18 ft 10 kts 84°
2026-05-05 16:29 41.29327 2.10271 17 ft 12 kts 152°
2026-05-05 16:30 41.29238 2.10314 13 ft 15 kts 177°
2026-05-05 16:30 41.29201 2.10270 14 ft 0 kts 246°
2026-05-05 16:30 41.29201 2.10269 14 ft 1 kts 246°
2026-05-05 16:30 41.29145 2.10103 14 ft 55 kts 245°
2026-05-05 16:31 41.28892 2.09364 15 ft 121 kts 245°
2026-05-05 16:31 41.28468 2.08140 90 ft 163 kts 242°
2026-05-05 16:31 41.27961 2.06821 793 ft 159 kts 232°
2026-05-05 16:31 41.27089 2.05955 1375 ft 168 kts 194°
2026-05-05 16:32 41.25846 2.05859 1709 ft 191 kts 182°
2026-05-05 16:32 41.24445 2.05840 2090 ft 209 kts 182°
2026-05-05 16:32 41.22960 2.05812 2846 ft 215 kts 183°
2026-05-05 16:32 41.21459 2.05780 3718 ft 217 kts 183°
2026-05-05 16:33 41.19943 2.05746 4582 ft 220 kts 182°
2026-05-05 16:33 41.18365 2.06124 5058 ft 247 kts 156°
2026-05-05 16:33 41.16781 2.07261 5611 ft 266 kts 156°
2026-05-05 16:33 41.15067 2.08262 6483 ft 272 kts 160°
2026-05-05 16:34 41.13288 2.09171 7398 ft 275 kts 162°
2026-05-05 16:34 41.11480 2.10052 8322 ft 279 kts 163°
2026-05-05 16:34 41.09648 2.10943 9254 ft 282 kts 163°
2026-05-05 16:34 41.07795 2.11856 10157 ft 286 kts 163°
2026-05-05 16:35 41.05875 2.12816 10623 ft 307 kts 163°
2026-05-05 16:35 41.03812 2.13856 11058 ft 324 kts 163°
2026-05-05 16:35 41.01685 2.14941 11823 ft 330 kts 163°
2026-05-05 16:35 40.99533 2.16045 12696 ft 333 kts 163°
2026-05-05 16:36 40.97391 2.17146 13559 ft 336 kts 163°
2026-05-05 16:36 40.95204 2.18271 14355 ft 339 kts 164°
2026-05-05 16:36 40.92993 2.19403 15090 ft 343 kts 164°
2026-05-05 16:36 40.90755 2.20546 15623 ft 346 kts 165°
2026-05-05 16:37 40.88505 2.21698 15879 ft 347 kts 165°
2026-05-05 16:37 40.86248 2.22854 16138 ft 348 kts 165°
2026-05-05 16:37 40.83980 2.24007 16386 ft 350 kts 165°
2026-05-05 16:37 40.81702 2.25165 16635 ft 351 kts 165°
2026-05-05 16:38 40.79423 2.26327 16841 ft 352 kts 166°
2026-05-05 16:38 40.77184 2.27576 16889 ft 349 kts 158°
2026-05-05 16:38 40.75177 2.29427 16872 ft 352 kts 150°
2026-05-05 16:38 40.73227 2.31379 16887 ft 352 kts 149°
2026-05-05 16:39 40.71285 2.33334 16895 ft 351 kts 149°
2026-05-05 16:39 40.69345 2.35291 16894 ft 351 kts 149°
2026-05-05 16:39 40.67429 2.37227 16890 ft 351 kts 149°
2026-05-05 16:39 40.65488 2.39185 16894 ft 351 kts 149°
2026-05-05 16:40 40.63547 2.41141 16897 ft 351 kts 149°
2026-05-05 16:40 40.61602 2.43100 16894 ft 352 kts 149°
2026-05-05 16:40 40.59660 2.45056 16894 ft 352 kts 149°
2026-05-05 16:40 40.57712 2.47014 16894 ft 352 kts 149°
2026-05-05 16:41 40.55765 2.48965 16897 ft 352 kts 150°
2026-05-05 16:41 40.53821 2.50912 16899 ft 352 kts 149°
2026-05-05 16:41 40.51876 2.52862 16897 ft 352 kts 149°
2026-05-05 16:41 40.49924 2.54815 16897 ft 352 kts 149°
2026-05-05 16:42 40.47974 2.56768 16901 ft 352 kts 149°
2026-05-05 16:42 40.46025 2.58717 16898 ft 352 kts 150°
2026-05-05 16:42 40.44096 2.60645 16884 ft 352 kts 150°
2026-05-05 16:42 40.42147 2.62592 16887 ft 352 kts 150°
2026-05-05 16:43 40.40198 2.64539 16891 ft 352 kts 150°
2026-05-05 16:43 40.38247 2.66485 16872 ft 352 kts 150°
2026-05-05 16:43 40.36307 2.68421 16591 ft 348 kts 149°
2026-05-05 16:43 40.34384 2.70341 16335 ft 346 kts 149°
2026-05-05 16:44 40.32471 2.72245 16087 ft 344 kts 149°
2026-05-05 16:44 40.30559 2.74140 15827 ft 343 kts 149°
2026-05-05 16:44 40.28686 2.75996 15580 ft 341 kts 149°
2026-05-05 16:44 40.26797 2.77871 15331 ft 339 kts 149°
2026-05-05 16:45 40.24920 2.79737 15083 ft 338 kts 149°
2026-05-05 16:45 40.23054 2.81591 14838 ft 336 kts 149°
2026-05-05 16:45 40.21186 2.83442 14580 ft 336 kts 149°
2026-05-05 16:45 40.19325 2.85282 14336 ft 335 kts 149°
2026-05-05 16:46 40.17469 2.87117 14097 ft 334 kts 149°
2026-05-05 16:46 40.15630 2.88937 13821 ft 329 kts 149°
2026-05-05 16:46 40.13818 2.90731 13420 ft 326 kts 148°
2026-05-05 16:46 40.12016 2.92514 13003 ft 323 kts 148°
2026-05-05 16:47 40.10251 2.94257 12846 ft 311 kts 148°
2026-05-05 16:47 40.08562 2.95929 12737 ft 299 kts 149°
2026-05-05 16:47 40.06897 2.97571 12425 ft 300 kts 149°
2026-05-05 16:47 40.05236 2.99206 12048 ft 298 kts 148°
2026-05-05 16:48 40.03582 3.00829 11655 ft 297 kts 148°
2026-05-05 16:48 40.01934 3.02446 11276 ft 295 kts 148°
2026-05-05 16:48 40.00296 3.04050 10886 ft 293 kts 148°
2026-05-05 16:48 39.98670 3.05642 10484 ft 291 kts 148°
2026-05-05 16:49 39.97050 3.07231 10135 ft 291 kts 147°
2026-05-05 16:49 39.95437 3.08812 10074 ft 291 kts 147°
2026-05-05 16:49 39.93765 3.10210 9943 ft 287 kts 159°
2026-05-05 16:49 39.91887 3.11012 9683 ft 284 kts 173°
2026-05-05 16:50 39.89922 3.11126 9198 ft 280 kts 188°
2026-05-05 16:50 39.87987 3.10864 8712 ft 280 kts 189°
2026-05-05 16:50 39.86073 3.10618 8413 ft 273 kts 188°
2026-05-05 16:50 39.84199 3.10388 7917 ft 269 kts 188°
2026-05-05 16:51 39.82341 3.10162 7247 ft 268 kts 188°
2026-05-05 16:51 39.80490 3.09933 6713 ft 266 kts 188°
2026-05-05 16:51 39.78653 3.09708 6236 ft 264 kts 188°
2026-05-05 16:51 39.76828 3.09484 5767 ft 263 kts 188°
2026-05-05 16:52 39.75005 3.09259 5300 ft 264 kts 188°
2026-05-05 16:52 39.73175 3.09014 4854 ft 264 kts 192°
2026-05-05 16:52 39.71458 3.08245 4422 ft 259 kts 212°
2026-05-05 16:52 39.70077 3.06817 4191 ft 248 kts 230°
2026-05-05 16:53 39.69125 3.05032 4067 ft 235 kts 240°
2026-05-05 16:53 39.68295 3.03263 3952 ft 223 kts 239°
2026-05-05 16:53 39.67518 3.01628 3832 ft 209 kts 240°
2026-05-05 16:53 39.66776 3.00054 3703 ft 199 kts 240°
2026-05-05 16:54 39.66067 2.98541 3575 ft 194 kts 240°
2026-05-05 16:54 39.65367 2.97048 3457 ft 194 kts 240°
2026-05-05 16:54 39.64667 2.95557 3362 ft 190 kts 240°
2026-05-05 16:54 39.63998 2.94132 3161 ft 180 kts 239°
2026-05-05 16:55 39.63364 2.92782 2922 ft 170 kts 239°
2026-05-05 16:55 39.62761 2.91498 2713 ft 163 kts 240°
2026-05-05 16:55 39.62177 2.90256 2492 ft 158 kts 239°
2026-05-05 16:55 39.61615 2.89060 2305 ft 153 kts 239°
2026-05-05 16:56 39.61072 2.87908 2095 ft 147 kts 238°
2026-05-05 16:56 39.60570 2.86820 1922 ft 140 kts 238°
2026-05-05 16:56 39.60056 2.85733 1739 ft 143 kts 240°
2026-05-05 16:56 39.59536 2.84635 1575 ft 142 kts 238°
2026-05-05 16:57 39.59011 2.83537 1325 ft 143 kts 237°
2026-05-05 16:57 39.58493 2.82435 1113 ft 147 kts 237°
2026-05-05 16:57 39.57969 2.81318 931 ft 142 kts 237°
2026-05-05 16:57 39.57444 2.80213 759 ft 144 kts 239°
2026-05-05 16:58 39.56922 2.79110 594 ft 142 kts 239°
2026-05-05 16:58 39.56416 2.78019 389 ft 142 kts 238°
2026-05-05 16:58 39.55906 2.76942 209 ft 137 kts 240°
2026-05-05 16:58 39.55422 2.75912 48 ft 130 kts 239°
2026-05-05 16:59 39.55007 2.75031 38 ft 89 kts 238°
2026-05-05 16:59 39.54780 2.74551 38 ft 40 kts 238°
2026-05-05 16:59 39.54687 2.74354 38 ft 18 kts 238°
2026-05-05 16:59 39.54619 2.74212 38 ft 18 kts 238°
2026-05-05 17:00 39.54566 2.74064 38 ft 18 kts 256°
2026-05-05 17:00 39.54551 2.73899 38 ft 18 kts 268°
2026-05-05 17:00 39.54551 2.73782 38 ft 8 kts 271°
2026-05-05 17:00 39.54551 2.73775 38 ft 0 kts 273°
2026-05-05 17:02 39.54551 2.73773 38 ft 1 kts 273°
2026-05-05 17:02 39.54552 2.73749 38 ft 4 kts 275°
2026-05-05 17:02 39.54563 2.73694 38 ft 8 kts 290°
2026-05-05 17:03 39.54610 2.73633 38 ft 11 kts 341°
2026-05-05 17:03 39.54671 2.73610 37 ft 8 kts 348°
2026-05-05 17:03 39.54703 2.73640 38 ft 3 kts 53°
2026-05-05 17:03 39.54710 2.73653 38 ft 2 kts 56°
2026-05-05 17:04 39.54713 2.73659 38 ft 0 kts 56°